This is the latest recevied weather packets stored in our database for station/object N6GPM. If no packets are shown the sender has not sent any weather packets the latest 10 day(s).
| Time | Temp. | Humidity | Pressure | Rain* | Wind** | Luminosity | Snow |
|---|---|---|---|---|---|---|---|
| 1788403724 | 22.22° C | 44% | 1018 hPa | 0 mm | - | 0 W/m² | - |
| 1788403418 | 22.22° C | 46% | 1018.1 hPa | 0 mm | - | 0 W/m² | - |
| 1788403114 | 22.22° C | 48% | 1018.2 hPa | 0 mm | - | 0 W/m² | - |
| 1788402809 | 22.22° C | 47% | 1018.2 hPa | 0 mm | - | 0 W/m² | - |
| 1788402504 | 22.78° C | 47% | 1018 hPa | 0 mm | - | 0 W/m² | - |
| 1788402203 | 22.78° C | 47% | 1018.2 hPa | 0 mm | - | 1 W/m² | - |
| 1788401897 | 22.78° C | 46% | 1018.1 hPa | 0 mm | - | 3 W/m² | - |
| 1788401609 | 22.78° C | 46% | 1017.8 hPa | 0 mm | - | 6 W/m² | - |
| 1788401292 | 22.78° C | 47% | 1017.9 hPa | 0 mm | - | 9 W/m² | - |
| 1788400987 | 23.33° C | 46% | 1018.3 hPa | 0 mm | - | 14 W/m² | - |
| 1788400683 | 23.33° C | 45% | 1018 hPa | 0 mm | - | 19 W/m² | - |
| 1788400378 | 23.89° C | 44% | 1017.9 hPa | 0 mm | - | 25 W/m² | - |
| 1788400073 | 23.89° C | 44% | 1017.9 hPa | 0 mm | - | 31 W/m² | - |
| 1788399773 | 24.44° C | 44% | 1017.9 hPa | 0 mm | - | 37 W/m² | - |
| 1788399468 | 24.44° C | 43% | 1017.7 hPa | 0 mm | - | 43 W/m² | - |
| 1788399167 | 25° C | 42% | 1017.9 hPa | 0 mm | - | 51 W/m² | - |
| 1788398866 | 25° C | 42% | 1017.7 hPa | 0 mm | - | 59 W/m² | - |
| 1788398565 | 25° C | 41% | 1017.9 hPa | 0 mm | - | 67 W/m² | - |
| 1788398259 | 25° C | 41% | 1017.7 hPa | 0 mm | - | 79 W/m² | - |
| 1788397954 | 25.56° C | 40% | 1017.8 hPa | 0 mm | - | 90 W/m² | - |
| 1788397650 | 25.56° C | 40% | 1017.9 hPa | 0 mm | - | 101 W/m² | - |
| 1788397350 | 25.56° C | 41% | 1017.7 hPa | 0 mm | - | 113 W/m² | - |
| 1788397048 | 26.11° C | 41% | 1017.8 hPa | 0 mm | - | 125 W/m² | - |
| 1788396743 | 26.11° C | 41% | 1017.6 hPa | 0 mm | - | 140 W/m² | - |
| 1788396439 | 26.11° C | 41% | 1017.5 hPa | 0 mm | - | 157 W/m² | - |
* Rain latest hour (hover to see other rain measurements)
** Current wind speed in m/s (hover to see current wind gust speed)